FENGYUN 1C DEB, 30915

Orbit data source: Space-Track

FENGYUN 1C DEB, 30915 is space debris in SSO originally from a launch on Mon, 10 May 1999 UTC launched from the Taiyaun Space Center, China (TSC). Fengyun 1C debris stems from the Chinese weather satellite Fengyun-1C, which was intentionally destroyed by a Chinese anti-satellite missile in 2007. This event dramatically increased the amount of space debris, with thousands of trackable fragments posing hazards to satellites and human spaceflight. The Fengyun 1C debris cloud has become a focal point in discussions about space sustainability and the need for international regulations to prevent the creation of new debris.

Loading next visibility...
Identifier
30915, 1999-025AZD
Orbit
SSO
Country
Flag of CNCN / PRC
Related business
Manufacturer
Unknown
Mission
Spacecraft
Bus & Motor
Unknown
Mass
Unknown
Launch date (UTC)
1999-05-10 (27 years ago)
Launch vehicle
Unknown
Launch site
Taiyaun Space Center, China (TSC)
Object type
Payload
Rocket body
Debris
Shape & HBR
Unknown shape, 0.1 m
Radar Cross Section
Small (<0.1 m²)

Expand to show TLE details & history
Last TLE update: 11 hours ago

TLE from 11 hours ago
0 FENGYUN 1C DEB
1 30915U 99025AZD 26256.95218444  .00002167  00000-0  89935-3 0  9994
2 30915  98.9321 343.5255 0052440  92.6741 268.0442 14.26814337  4215
Epoch: 2026-09-13T22:51Z
TLE epoch observation values (Epoch: 2026-09-13T22:51:08.735Z)
Latitude
-0.0001°
Longitude
7.79966°
Altitude
806.798 km
Speed
7.449 km/s
True Right ascension
22h 54m 06s
True Declination
0° 00' 00"
Sunlit
Object was in full shadow at epoch
Visualization orbit readout
Latitude
Unknown
Longitude
Unknown
Altitude
Unknown
Speed
Unknown
Apparent Right ascension
Unknown
Apparent Declination
Unknown
Sunlit
N/A
Visualization observer readout
Local Sidereal Time
02:24:19
Azimuth
Unknown
Elevation
Unknown
Doppler factor
Unknown
Orbital elements
Apogee altitude
837.199 km
Perigee altitude
761.919 km
Semi-major axis
7,177.696 km
Eccentricity
0.00524
Inclination
98.9321°
RAAN
343.5255°
Arg. of periapsis
92.6741°
True anomaly
267.44378°
Mean anomaly
268.0442°
Eccentric anomaly
267.74397°
Mean motion
3.56916 °/min
Orbital period
100.86 mins
BSTAR
0.00089935
Loading maneuver chart data...
Computing Atmospheric mass density...

Documentation

Showing up to 5 results
|